Wind_Speed
43 45 46 47 48 50 52 54 56 57 59 61 62 64 64 63 63 64 65 66 66 67 69 70 71 71 70 69 69 69 68 68 66 65 63 62 61 61
47 48 49 50 51 53 54 55 56 57 60 61 61 61 62 63 63 64 65 65 65 65 65 65 65 65 65 65 64 63 63 61 59 58 57 57 57 57
48 49 51 51 52 53 54 55 55 55 56 57 59 60 61 60 60 61 61 62 61 60 59 59 59 59 58 58 58 57 55 55 54 53 53 52 52 52
51 52 52 53 53 53 54 54 55 55 55 57 58 58 58 59 58 58 57 56 54 53 53 52 52 51 50 50 49 48 47 47 47 47 47 48 48 49
52 53 53 53 54 54 55 55 56 56 57 57 56 56 56 55 53 52 51 50 49 48 47 45 45 45 44 43 42 42 41 41 41 41 42 43 44 44
53 54 54 55 55 54 54 55 55 55 54 54 52 52 51 49 48 46 45 44 43 41 41 40 40 39 38 38 37 36 36 35 36 36 37 38 39 40
53 53 53 53 52 52 51 50 50 49 48 47 45 44 42 41 40 38 37 37 37 36 35 35 34 35 34 33 33 33 33 33 33 34 35 36 37 38
50 49 49 48 47 47 45 45 43 41 39 37 36 35 34 33 32 32 31 30 30 30 30 31 32 31 31 31 31 31 31 32 33 33 34 35 36 36
44 43 42 41 39 37 35 33 31 29 29 29 28 26 26 25 26 26 26 26 27 27 27 28 29 29 29 29 29 30 30 30 31 31 31 32 33 33
37 35 33 31 29 27 26 24 22 21 20 20 20 20 20 21 22 23 23 23 24 25 25 25 26 27 28 28 28 28 27 28 28 29 29 29 29 29
29 26 23 21 20 19 18 17 16 15 15 16 17 18 19 20 21 21 21 22 22 23 23 24 25 26 27 28 27 26 25 25 25 25 24 25 24 23
20 17 16 15 15 14 13 13 12 13 14 15 16 17 18 19 20 20 20 21 21 21 22 23 24 25 25 26 25 25 24 23 22 21 20 20 20 19
14 13 13 12 12 12 12 12 12 13 14 14 15 16 17 18 18 19 20 20 21 21 22 23 24 24 24 23 23 23 22 21 20 20 19 18 18 17
11 11 11 11 12 12 12 12 13 13 13 14 14 15 16 17 18 19 20 20 20 21 22 23 23 23 22 22 22 21 20 19 19 19 18 18 18 17
10 10 11 11 12 12 13 13 13 13 14 14 15 16 17 17 18 19 19 19 19 19 20 21 21 21 21 21 21 20 19 19 18 19 19 19 19 18
10 10 10 10 11 12 12 13 13 14 14 15 16 16 17 17 18 18 19 18 18 18 19 19 20 20 20 21 21 20 20 19 19 20 19 19 19 19
9 10 10 10 11 11 12 13 13 14 15 15 15 16 16 16 16 17 17 16 17 18 18 18 18 19 20 20 20 21 20 20 20 20 20 20 20 20
9 9 10 11 11 11 12 13 14 14 15 15 15 15 15 14 15 15 14 15 16 17 18 18 18 18 19 20 20 21 21 21 21 21 21 21 21 21
9 9 10 11 11 11 12 13 14 15 15 15 15 14 14 14 13 13 13 14 15 16 17 17 18 18 19 20 20 21 21 22 22 22 22 22 22 22
9 9 10 11 11 11 12 13 14 15 15 15 15 14 13 13 13 12 12 12 13 15 16 16 17 18 18 19 20 21 22 22 23 22 22 23 23 23
9 10 10 11 11 12 13 14 15 15 15 14 14 14 13 12 12 11 11 11 12 13 14 15 16 17 18 18 19 20 21 22 23 23 23 23 23 24
9 10 11 11 12 13 13 14 14 15 14 14 13 13 13 12 11 11 10 10 11 11 12 13 14 15 16 17 18 18 20 21 22 23 23 24 24 24
10 10 11 11 12 13 14 14 14 14 14 14 13 13 12 12 11 10 10 10 11 11 11 12 13 14 15 16 17 17 18 20 21 22 23 24 25 25
Wind_Direction
287 286 286 285 284 284 284 284 283 283 283 282 282 283 283 283 282 283 283 283 284 285 286 285 285 285 285 284 283 282 281 279 279 278 278 277 276 275
286 285 286 284 283 284 283 283 283 284 283 282 283 282 283 282 283 283 284 285 286 287 288 288 288 288 287 287 287 286 284 283 282 281 279 278 276 275
286 286 286 285 284 284 283 283 283 284 283 283 283 283 283 283 284 286 287 287 288 290 291 291 291 291 291 290 289 288 287 286 283 281 280 278 277 276
287 288 288 288 286 285 285 286 286 286 285 285 285 285 285 286 288 290 291 292 293 294 294 295 295 294 294 293 292 291 289 287 285 283 281 280 278 277
289 289 289 289 288 286 286 287 287 287 287 287 288 288 288 289 290 291 293 295 296 297 297 297 297 296 295 294 294 292 291 289 287 285 282 281 280 278
292 290 290 291 290 289 289 289 289 289 289 290 291 291 292 293 294 295 296 297 298 299 299 299 299 298 297 297 296 294 293 292 290 288 286 285 283 280
294 292 292 293 292 292 292 292 292 292 293 293 294 294 295 296 297 298 298 299 300 301 301 302 303 302 302 302 301 299 297 295 294 292 290 288 285 283
295 294 294 294 294 295 295 297 297 296 297 297 297 298 299 300 300 301 303 303 304 305 306 307 307 308 308 307 305 304 303 301 299 296 295 293 290 288
299 298 298 298 299 301 303 304 304 304 303 303 304 304 305 307 308 309 310 311 312 313 313 314 314 315 314 313 311 310 308 306 305 303 301 298 296 293
302 302 303 305 307 308 310 311 312 313 315 316 315 315 317 319 320 320 321 321 321 321 321 322 322 321 321 320 320 318 315 313 311 310 308 307 304 301
309 310 313 316 319 321 322 323 324 326 328 328 329 332 333 332 332 330 330 331 330 329 329 329 330 329 328 327 327 326 324 322 321 319 318 317 315 312
320 323 326 330 334 337 338 338 339 340 340 341 343 344 342 340 337 337 336 336 336 336 336 336 336 335 335 334 333 333 333 332 332 332 332 331 330 327
331 336 340 344 348 351 352 353 353 351 352 352 351 348 344 342 341 341 340 340 341 342 342 342 343 343 344 344 344 344 344 346 347 349 350 349 348 346
340 345 349 353 357 359 358 357 357 358 359 356 352 349 347 346 345 344 343 343 344 345 346 348 350 351 353 353 354 354 356 358 360 1 2 2 2 1
343 347 352 356 358 359 358 356 357 357 356 353 351 349 349 348 347 346 347 349 350 352 353 355 357 359 2 4 5 7 8 10 13 14 14 14 15 16
348 353 357 0 0 358 358 356 356 354 352 350 350 350 350 350 350 350 352 355 358 359 360 2 5 7 10 13 15 17 18 20 21 22 23 23 23 23
358 2 2 0 358 355 354 354 353 352 351 350 349 348 349 351 352 353 357 2 4 5 7 10 12 14 17 19 21 23 25 27 28 28 29 29 29 30
0 0 359 357 354 353 354 354 354 353 351 350 349 349 350 352 355 358 2 5 8 11 14 16 18 21 22 24 27 29 30 30 29 28 28 30 31 32
359 358 357 356 355 355 355 353 352 351 351 350 351 351 353 355 358 1 5 7 10 14 18 21 23 24 27 29 32 33 33 32 33 33 33 34 34 33
358 357 357 357 357 356 354 352 351 350 351 353 355 355 356 358 1 5 8 11 15 18 21 25 27 28 29 32 35 36 35 35 35 35 34 35 35 34
356 356 356 357 357 356 353 352 352 353 354 355 357 359 360 2 6 10 12 14 17 20 23 26 28 31 32 34 34 35 35 35 34 34 35 35 36 36
354 355 355 355 355 355 354 354 355 357 358 359 360 2 5 6 10 14 18 19 21 23 26 27 28 30 32 33 32 32 33 34 35 36 37 37 37 38
353 355 355 355 356 356 356 357 359 0 2 3 4 5 7 9 14 19 22 25 27 29 30 30 31 33 34 33 34 34 35 35 36 37 37 38 39 39
Height
5788 5785 5783 5780 5777 5774 5770 5767 5764 5760 5755 5750 5746 5741 5737 5732 5728 5723 5718 5712 5707 5702 5697 5692 5686 5681 5676 5672 5668 5664 5661 5658 5655 5652 5650 5649 5648 5647
5777 5774 5770 5767 5764 5760 5756 5752 5748 5744 5740 5734 5729 5724 5720 5715 5711 5706 5701 5695 5689 5684 5679 5673 5667 5662 5657 5653 5649 5645 5641 5638 5636 5634 5632 5630 5629 5628
5764 5762 5758 5754 5750 5745 5741 5737 5732 5729 5725 5719 5713 5708 5703 5699 5693 5689 5684 5679 5673 5668 5662 5657 5651 5646 5641 5636 5632 5628 5624 5621 5618 5616 5614 5613 5611 5611
5752 5748 5744 5740 5736 5731 5726 5722 5717 5713 5708 5703 5697 5692 5687 5683 5678 5673 5668 5663 5658 5653 5648 5643 5637 5632 5627 5622 5618 5614 5610 5607 5604 5601 5599 5598 5596 5595
5738 5734 5730 5726 5721 5716 5711 5706 5701 5696 5691 5687 5682 5677 5672 5668 5664 5659 5655 5650 5645 5640 5635 5630 5625 5620 5615 5611 5606 5602 5598 5594 5591 5588 5585 5583 5582 5580
5724 5719 5715 5710 5705 5700 5695 5690 5685 5680 5676 5671 5667 5662 5658 5654 5651 5647 5643 5637 5633 5628 5624 5619 5614 5610 5605 5601 5597 5592 5588 5584 5580 5577 5574 5571 5569 5567
5709 5705 5700 5695 5689 5684 5679 5674 5670 5665 5661 5657 5653 5650 5646 5642 5639 5635 5632 5628 5623 5619 5615 5610 5606 5601 5596 5591 5587 5583 5579 5574 5571 5567 5564 5560 5558 5555
5696 5690 5685 5680 5675 5670 5665 5660 5656 5653 5649 5646 5643 5640 5636 5633 5630 5626 5623 5619 5616 5612 5607 5602 5598 5593 5588 5583 5579 5575 5570 5565 5561 5557 5553 5550 5546 5543
5683 5678 5672 5668 5663 5658 5654 5650 5646 5643 5640 5638 5634 5632 5629 5626 5623 5620 5616 5613 5609 5605 5601 5596 5591 5586 5581 5576 5572 5567 5562 5557 5553 5548 5544 5540 5536 5532
5672 5667 5663 5658 5654 5650 5647 5643 5640 5637 5635 5632 5630 5627 5624 5621 5618 5615 5611 5608 5603 5599 5595 5590 5585 5580 5575 5570 5565 5560 5555 5550 5545 5541 5536 5531 5527 5522
5664 5660 5656 5653 5649 5645 5642 5639 5637 5634 5632 5629 5626 5623 5620 5617 5614 5611 5607 5604 5600 5595 5591 5586 5582 5576 5571 5565 5560 5555 5550 5545 5540 5534 5530 5525 5520 5516
5660 5656 5653 5649 5646 5643 5640 5638 5635 5633 5630 5627 5624 5621 5618 5615 5612 5608 5604 5601 5597 5593 5588 5583 5578 5573 5568 5562 5556 5550 5545 5540 5535 5530 5525 5520 5516 5511
5657 5654 5651 5648 5645 5643 5640 5637 5635 5632 5629 5626 5624 5621 5618 5614 5610 5607 5603 5599 5594 5590 5585 5581 5575 5570 5565 5559 5554 5548 5543 5537 5533 5528 5523 5518 5514 5509
5656 5653 5651 5648 5645 5642 5640 5637 5634 5632 5629 5626 5623 5620 5617 5613 5609 5605 5601 5597 5593 5588 5583 5579 5574 5569 5564 5558 5553 5547 5542 5537 5532 5527 5523 5518 5514 5509
5655 5653 5650 5648 5645 5642 5640 5637 5634 5631 5629 5626 5623 5620 5616 5612 5609 5605 5601 5596 5592 5587 5583 5578 5573 5569 5564 5558 5553 5548 5543 5538 5533 5529 5524 5519 5515 5511
5655 5652 5650 5647 5645 5642 5640 5637 5634 5631 5628 5625 5622 5619 5615 5612 5608 5604 5600 5596 5592 5588 5583 5578 5574 5570 5565 5560 5555 5550 5545 5540 5536 5531 5526 5522 5518 5513
5655 5652 5650 5647 5645 5642 5640 5637 5634 5631 5628 5625 5622 5618 5615 5611 5608 5604 5600 5596 5592 5588 5584 5580 5575 5571 5566 5562 5557 5553 5548 5543 5539 5534 5530 5525 5521 5517
5655 5653 5650 5648 5645 5643 5640 5637 5634 5631 5628 5625 5621 5618 5614 5611 5607 5604 5600 5597 5593 5589 5585 5581 5577 5573 5569 5565 5560 5556 5551 5547 5542 5538 5533 5529 5525 5521
5655 5653 5651 5648 5646 5643 5640 5637 5634 5631 5628 5624 5621 5617 5614 5611 5607 5604 5601 5598 5594 5590 5587 5583 5579 5575 5571 5568 5564 5559 5555 5551 5546 5542 5538 5534 5529 5525
5655 5653 5651 5649 5646 5643 5640 5637 5634 5631 5627 5624 5621 5617 5614 5611 5608 5604 5601 5598 5595 5592 5589 5585 5582 5578 5574 5571 5567 5563 5559 5555 5551 5547 5543 5538 5534 5529
5656 5654 5651 5649 5646 5643 5640 5637 5634 5630 5627 5624 5620 5617 5614 5611 5608 5605 5602 5600 5597 5594 5591 5588 5584 5581 5577 5574 5570 5567 5563 5559 5555 5551 5547 5543 5538 5534
5656 5653 5651 5649 5646 5643 5640 5637 5634 5630 5627 5624 5620 5617 5614 5611 5609 5606 5603 5601 5598 5596 5593 5590 5587 5584 5581 5577 5574 5570 5567 5563 5559 5555 5551 5548 5544 5539
5656 5653 5651 5649 5646 5643 5640 5637 5633 5630 5627 5624 5621 5618 5615 5612 5609 5607 5604 5602 5600 5597 5595 5592 5590 5587 5584 5581 5577 5574 5571 5568 5564 5560 5556 5552 5548 5544